Stündliche Wetter Juncewo

Heute, 24 Februar, Mittwoch

Zeit Temperatur Niederschläge Wind Luftdruck Luftfeuchtigkeit
00:00 +7°C° 0 mm 3 m/S 764 mmHg 87%
01:00 +7°C° 0 mm 3 m/S 764 mmHg 91%
02:00 +7°C° 0 mm 3 m/S 764 mmHg 91%
03:00 +7°C° 0 mm 3 m/S 764 mmHg 92%
04:00 +7°C° 0 mm 3 m/S 764 mmHg 92%
05:00 +5°C° 0 mm 3 m/S 764 mmHg 92%
06:00 +6°C° 0 mm 2 m/S 764 mmHg 92%
07:00 +6°C° 0 mm 2 m/S 764 mmHg 91%
08:00 +7°C° 0 mm 3 m/S 764 mmHg 89%
09:00 +8°C° 0 mm 3 m/S 764 mmHg 87%
10:00 +9°C° 0 mm 3 m/S 764 mmHg 85%
11:00 +10°C° 0 mm 3 m/S 764 mmHg 82%
12:00 +11°C° 0 mm 3 m/S 764 mmHg 80%
13:00 +13°C° 0 mm 4 m/S 763 mmHg 77%
14:00 +13°C° 0 mm 4 m/S 763 mmHg 77%
15:00 +13°C° 0 mm 4 m/S 763 mmHg 77%
16:00 +12°C° 0 mm 4 m/S 763 mmHg 78%
17:00 +12°C° 0 mm 3 m/S 763 mmHg 81%
18:00 +11°C° 0 mm 3 m/S 762 mmHg 84%
19:00 +10°C° 0 mm 3 m/S 762 mmHg 86%
20:00 +9°C° 0 mm 3 m/S 762 mmHg 87%
21:00 +9°C° 0 mm 3 m/S 762 mmHg 87%
22:00 +9°C° 0 mm 3 m/S 762 mmHg 88%
23:00 +8°C° 0 mm 3 m/S 762 mmHg 89%

Morgen, 25 Februar, Donnerstag

Zeit Temperatur Niederschläge Wind Luftdruck Luftfeuchtigkeit
00:00 +8°C° 0 mm 3 m/S 762 mmHg 89%
01:00 +8°C° 0 mm 3 m/S 762 mmHg 90%
02:00 +7°C° 0 mm 3 m/S 762 mmHg 91%
03:00 +7°C° 0 mm 3 m/S 762 mmHg 91%
04:00 +7°C° 0 mm 3 m/S 762 mmHg 92%
05:00 +7°C° 0 mm 3 m/S 761 mmHg 92%
06:00 +7°C° 0 mm 3 m/S 761 mmHg 92%
07:00 +5°C° 0 mm 3 m/S 761 mmHg 92%
08:00 +8°C° 0 mm 3 m/S 761 mmHg 87%
09:00 +8°C° 0 mm 4 m/S 761 mmHg 82%
10:00 +11°C° 0 mm 4 m/S 760 mmHg 77%
11:00 +12°C° 0 mm 4 m/S 760 mmHg 71%
12:00 +14°C° 0 mm 5 m/S 760 mmHg 65%
13:00 +15°C° 0 mm 5 m/S 760 mmHg 59%
14:00 +15°C° 0 mm 5 m/S 759 mmHg 61%
15:00 +15°C° 0 mm 4 m/S 759 mmHg 63%
16:00 +14°C° 0 mm 4 m/S 758 mmHg 65%
17:00 +13°C° 0 mm 4 m/S 759 mmHg 70%
18:00 +12°C° 0 mm 3 m/S 759 mmHg 76%
19:00 +10°C° 0 mm 3 m/S 759 mmHg 81%
20:00 +10°C° 0 mm 3 m/S 759 mmHg 83%
21:00 +9°C° 0 mm 3 m/S 759 mmHg 86%
22:00 +9°C° 0 mm 3 m/S 759 mmHg 88%
23:00 +8°C° 0 mm 3 m/S 759 mmHg 89%

übermorgen, 26 Februar, Freitag

Zeit Temperatur Niederschläge Wind Luftdruck Luftfeuchtigkeit
00:00 +7°C° 0 mm 4 m/S 759 mmHg 91%
01:00 +7°C° 0 mm 4 m/S 760 mmHg 92%
02:00 +7°C° 0 mm 3 m/S 759 mmHg 93%
03:00 +7°C° 0 mm 3 m/S 759 mmHg 95%
04:00 +5°C° 0 mm 3 m/S 759 mmHg 96%
05:00 +5°C° 0 mm 3 m/S 759 mmHg 96%
06:00 +4°C° 0 mm 3 m/S 760 mmHg 96%
07:00 +4°C° 0 mm 3 m/S 760 mmHg 96%
08:00 +5°C° 0 mm 3 m/S 760 mmHg 90%
09:00 +5°C° 0 mm 4 m/S 760 mmHg 85%
10:00 +6°C° 0 mm 4 m/S 760 mmHg 79%
11:00 +6°C° 0 mm 5 m/S 760 mmHg 74%
12:00 +7°C° 0 mm 5 m/S 760 mmHg 69%
13:00 +8°C° 0 mm 6 m/S 760 mmHg 64%
14:00 +7°C° 0 mm 5 m/S 760 mmHg 64%
15:00 +7°C° 0 mm 5 m/S 759 mmHg 65%
16:00 +7°C° 0 mm 5 m/S 759 mmHg 65%
17:00 +6°C° 0 mm 5 m/S 759 mmHg 70%
18:00 +5°C° 0 mm 4 m/S 759 mmHg 75%
19:00 +4°C° 0 mm 4 m/S 759 mmHg 79%
20:00 +4°C° 0 mm 4 m/S 759 mmHg 81%
21:00 +3°C° 0 mm 5 m/S 759 mmHg 82%
22:00 +3°C° 0 mm 5 m/S 759 mmHg 83%
23:00 +2°C° 0 mm 5 m/S 760 mmHg 85%

27 Februar, Samstag

Zeit Temperatur Niederschläge Wind Luftdruck Luftfeuchtigkeit
00:00 +2°C° 0 mm 5 m/S 760 mmHg 86%
01:00 +1°C° 0 mm 5 m/S 760 mmHg 88%
02:00 +1°C° 0 mm 5 m/S 760 mmHg 88%
03:00 +1°C° 0 mm 6 m/S 760 mmHg 88%
04:00 +1°C° 0 mm 6 m/S 759 mmHg 88%
05:00 +1°C° 0 mm 6 m/S 760 mmHg 87%
06:00 +1°C° 0 mm 5 m/S 760 mmHg 87%
07:00 +1°C° 0 mm 5 m/S 761 mmHg 86%
08:00 +2°C° 0 mm 5 m/S 761 mmHg 84%
09:00 +2°C° 0 mm 5 m/S 762 mmHg 82%
10:00 +3°C° 0 mm 5 m/S 762 mmHg 80%
11:00 +5°C° 0 mm 5 m/S 762 mmHg 74%
12:00 +5°C° 0 mm 5 m/S 763 mmHg 68%
13:00 +6°C° 0 mm 5 m/S 763 mmHg 62%
14:00 +6°C° 0 mm 5 m/S 763 mmHg 62%
15:00 +6°C° 0 mm 5 m/S 763 mmHg 61%
16:00 +6°C° 0 mm 4 m/S 763 mmHg 61%
17:00 +5°C° 0 mm 4 m/S 763 mmHg 66%
18:00 +3°C° 0 mm 3 m/S 764 mmHg 71%
19:00 +2°C° 0 mm 3 m/S 764 mmHg 77%
20:00 +1°C° 0 mm 3 m/S 764 mmHg 79%
21:00 0°C° 0 mm 3 m/S 764 mmHg 82%
22:00 +1°C° 0 mm 2 m/S 765 mmHg 85%
23:00 +1°C° 0 mm 2 m/S 765 mmHg 84%

28 Februar, Sonntag

Zeit Temperatur Niederschläge Wind Luftdruck Luftfeuchtigkeit
00:00 -1°C° 0 mm 2 m/S 765 mmHg 83%
01:00 -1°C° 0 mm 2 m/S 765 mmHg 82%
02:00 -1°C° 0 mm 2 m/S 765 mmHg 82%
03:00 -1°C° 0 mm 2 m/S 765 mmHg 82%
04:00 -1°C° 0 mm 2 m/S 764 mmHg 81%
05:00 -1°C° 0 mm 2 m/S 764 mmHg 81%
06:00 -1°C° 0 mm 2 m/S 764 mmHg 80%
07:00 -1°C° 0 mm 3 m/S 764 mmHg 80%
08:00 +1°C° 0 mm 3 m/S 764 mmHg 78%
09:00 +2°C° 0 mm 3 m/S 764 mmHg 75%
10:00 +3°C° 0 mm 3 m/S 764 mmHg 73%
11:00 +3°C° 0.1 mm 3 m/S 764 mmHg 76%
12:00 +4°C° 0.1 mm 2 m/S 765 mmHg 79%
13:00 +5°C° 0.1 mm 2 m/S 765 mmHg 82%
14:00 +4°C° 0.1 mm 2 m/S 765 mmHg 85%
15:00 +4°C° 0.1 mm 2 m/S 764 mmHg 89%
16:00 +4°C° 0.1 mm 2 m/S 764 mmHg 92%
17:00 +3°C° 0 mm 2 m/S 765 mmHg 92%
18:00 +3°C° 0 mm 2 m/S 765 mmHg 93%
19:00 +2°C° 0 mm 2 m/S 765 mmHg 93%
20:00 +3°C° 0 mm 1 m/S 765 mmHg 93%
21:00 +2°C° 0 mm 1 m/S 766 mmHg 93%
22:00 +2°C° 0 mm 1 m/S 766 mmHg 93%
23:00 +2°C° 0 mm 1 m/S 766 mmHg 93%

1 März, Montag

Zeit Temperatur Niederschläge Wind Luftdruck Luftfeuchtigkeit
00:00 +1°C° 0 mm 1 m/S 767 mmHg 93%
01:00 +1°C° 0 mm 1 m/S 767 mmHg 93%
02:00 +1°C° 0 mm 1 m/S 767 mmHg 93%
03:00 +1°C° 0 mm 1 m/S 767 mmHg 93%
04:00 +1°C° 0 mm 1 m/S 767 mmHg 93%
05:00 +1°C° 0 mm 1 m/S 767 mmHg 93%
06:00 +1°C° 0 mm 1 m/S 767 mmHg 93%
07:00 +1°C° 0 mm 1 m/S 767 mmHg 93%
08:00 +2°C° 0 mm 1 m/S 767 mmHg 88%
09:00 +4°C° 0 mm 1 m/S 767 mmHg 82%
10:00 +5°C° 0 mm 1 m/S 768 mmHg 77%
11:00 +6°C° 0 mm 1 m/S 768 mmHg 73%
12:00 +7°C° 0 mm 1 m/S 767 mmHg 69%
13:00 +8°C° 0 mm 1 m/S 767 mmHg 66%
14:00 +8°C° 0 mm 1 m/S 767 mmHg 67%
15:00 +8°C° 0 mm 1 m/S 767 mmHg 68%
16:00 +8°C° 0 mm 1 m/S 767 mmHg 69%
17:00 +6°C° 0 mm 1 m/S 767 mmHg 73%
18:00 +5°C° 0 mm 1 m/S 767 mmHg 77%
19:00 +4°C° 0 mm 1 m/S 767 mmHg 82%
20:00 +4°C° 0 mm 1 m/S 767 mmHg 83%
21:00 +3°C° 0 mm 1 m/S 767 mmHg 85%
22:00 +2°C° 0 mm 2 m/S 767 mmHg 86%
23:00 +2°C° 0 mm 2 m/S 767 mmHg 87%
Mehr zeigen

Wir brauchen deine Erlaubnis

Meteoprog und unser Service Anbieter werden persönliche Daten aufbewahren, so wie Cookies, Geräte Bezeichnung oder ähnliche Technologien von deinem Gerät und Prozess, so wie Persönliche Daten Inhalte und Werbungen, genauso wie social Media und den Verkehr zu analysieren.

  • Aufbewahrung und/oder Zugang zu deiner Geräte Informationen.

    Cookies, Geräte Bezeichnung oder andere Informationen, können aufbewahrt oder Zugang zu deinem Gerät erhalten, für den Grund, der oben angegeben wird.

  • Personalisierte Werbung und Inhalte, Messungen, Einblick in das Publikum und Produkt Entwicklung.

    Werbungen und Inhalte können personalisiert werden, basierend auf ein Profil. Mehr Daten können besser personalisierte Werbungen und Inhalte hinzufügen. Werbung und Inhalte können gezeigt und gemessen werden. Einblicke über das Publikum, welche die Werbung gesehen haben und den Inhalt, können abgeleitet werden. So wie Daten können genutzt werden, um es zu verbessern oder die Benutzer Erfahrung zu verbessern das System und die Software.

Wenn du “Ich stimme zu” klickst, erlaubst du uns, die Cookies zu benutzen die Geräte Bezeichnung, den Web oder ähnliche Technologien zu benutzen. Deine Settings, können in deinem Gerät bei deinem Browser geändert werden.

Für den bestimmten Zweck, berechtigten Interessen beruhen darauf, mehr als auf den Inhalt. Du kannst mehr darüber in unseren Privaten und Cookie Politik lesen.